Find Meteor

NORAD ID: 7714 Int'l Des: 1975-023 Owner: GUKOSR/GMS Country: SU operational
LEOCIRCULARPOLAR

Live-Position

3D-Globus wird geladen...

Über Meteor

Beschreibung wird geladen...

Nächste Überflüge

Passes for default location (London). Set your location on the main map for personalized predictions.

Höhenverlauf

Loading altitude history...

Zweizeiliger Elementsatz

1 7714U 75023A 26106.79607520 .00000035 00000-0 13185-4 0 9997
2 7714 81.1891 289.4637 0030390 165.3635 194.8422 14.08467870938894
Epoch: 16. Apr. 2026 • Age: 17 hours

Aktueller Status

Höhe 901.7 km
Geschwindigkeit 7.39 km/s
Subsatellitenpunkt -47.30°S, 105.37°W
Typ other

Most Searched